Starlink 31324

operational
NORAD ID: 58976 Int'l Des: 2024-031 Owner: SPXS Country: US Constellation: starlink
LEOCIRCULAR

关于 Starlink 31324

正在加载描述...

实时位置

正在加载3D地球...

即将过境

高度历史

Altitude vs Time

uPlot chart will show altitude changes over time

两行轨道根数

1 58976U 24031M 25350.22651803 .00002032 00000-0 80723-4 0 9998
2 58976 53.1620 324.4391 0001339 87.7797 272.3357 15.30193972103734
Epoch: Dec 16, 2025 • Age: 15 hours

当前状态

高度 487.0 km
速度 7.62 km/s
星下点 -35.04°S, 139.4°E
发射日期 Feb 15, 2024
运行时间 1.8 years
类型 internet

技术详情

分类 Payload
质量 730.00 kg
干质量 700.00 kg
总质量 730.00 kg
长度 0.30 m
直径 4.10 m
跨度 29.00 m
形状 Box + pan
制造商 SPXS
平台类型 Starlink V2M
阶段状态 In Orbit
所有者/国家 SPXS/US

大型星座

Loading constellations...